This is the latest recevied weather packets stored in our database for station/object KE5BM-13. If no packets are shown the sender has not sent any weather packets the latest 1 day(s).
| Time | Temp. | Humidity | Pressure | Rain* | Wind** | Luminosity | Snow |
|---|---|---|---|---|---|---|---|
| 1778001019 | 16.11° C | 77% | 1011.4 hPa | 0 mm | 3.58 m/s, 162° | - | - |
| 1778000719 | 16.67° C | 77% | 1011.5 hPa | 0 mm | 3.13 m/s, 241° | - | - |
| 1778000417 | 16.67° C | 76% | 1011.3 hPa | 0 mm | 3.13 m/s, 168° | - | - |
| 1778000116 | 16.67° C | 77% | 1011.4 hPa | 0 mm | 3.13 m/s, 166° | - | - |
| 1777999817 | 16.11° C | 77% | 1011.5 hPa | 0 mm | 3.58 m/s, 183° | - | - |
| 1777999515 | 16.67° C | 77% | 1011.5 hPa | 0 mm | 3.13 m/s, 164° | - | - |
| 1777999214 | 16.67° C | 78% | 1011.6 hPa | 0 mm | 2.68 m/s, 148° | - | - |
| 1777998915 | 16.67° C | 77% | 1011.7 hPa | 0 mm | 3.13 m/s, 198° | - | - |
| 1777998612 | 16.11° C | 78% | 1011.7 hPa | 0 mm | 3.13 m/s, 136° | - | - |
| 1777998311 | 16.67° C | 77% | 1011.7 hPa | 0 mm | 3.13 m/s, 169° | - | - |
| 1777998013 | 16.67° C | 78% | 1011.7 hPa | 0 mm | 2.68 m/s, 217° | - | - |
| 1777997711 | 16.11° C | 78% | 1011.8 hPa | 0 mm | 2.68 m/s, 160° | - | - |
| 1777997411 | 16.11° C | 79% | 1011.7 hPa | 0 mm | 3.13 m/s, 186° | - | - |
| 1777997111 | 16.11° C | 78% | 1011.8 hPa | 0 mm | 3.13 m/s, 165° | - | - |
| 1777996810 | 16.11° C | 78% | 1011.9 hPa | 0 mm | 2.68 m/s, 150° | - | - |
| 1777996509 | 16.11° C | 79% | 1011.9 hPa | 0 mm | 2.68 m/s, 130° | - | - |
| 1777996208 | 15.56° C | 80% | 1012.1 hPa | 0 mm | 2.68 m/s, 148° | - | - |
| 1777995908 | 15.56° C | 80% | 1012.2 hPa | 0 mm | 2.68 m/s, 176° | - | - |
| 1777995607 | 15.56° C | 80% | 1012 hPa | 0 mm | 2.68 m/s, 167° | - | - |
| 1777995307 | 15.56° C | 78% | 1012 hPa | 0 mm | 2.68 m/s, 152° | - | - |
| 1777995008 | 16.11° C | 78% | 1012 hPa | 0 mm | 2.24 m/s, 153° | - | - |
| 1777994705 | 16.11° C | 78% | 1012.2 hPa | 0 mm | 2.24 m/s, 120° | - | - |
| 1777994407 | 15.56° C | 79% | 1012.2 hPa | 0 mm | 2.24 m/s, 160° | - | - |
| 1777994105 | 15.56° C | 79% | 1012.1 hPa | 0 mm | 2.68 m/s, 134° | - | - |
| 1777993805 | 15.56° C | 79% | 1012.1 hPa | 0 mm | 2.24 m/s, 202° | - | - |
* Rain latest hour (hover to see other rain measurements)
** Current wind speed in m/s (hover to see current wind gust speed)